Regional Weather Roundup
Issued by NWS State College, PA

Home | Current Version | Previous Version | Text Only | Print | Product List | Glossary On
Versions: 1 2 3 4 5 6 7 8 9 10 11 12 13 14 15 16 17 18 19 20 21 22 23 24 25 26 27 28 29 30 31 32 33 34 35 36 37 38 39 40 41 42 43 44 45 46 47 48 49 50
000
ASUS41 KCTP 261010
RWRCTP

REGIONAL WEATHER ROUNDUP
NATIONAL WEATHER SERVICE STATE COLLEGE PA
600 AM EDT MON JUN 26 2017

Note: "fair" indicates few or no clouds below 12,000 feet with no
significant weather and/or obstructions to visibility.

* = STATION THAT DOES NOT REPORT PRECIPITATION /E.G. RAIN...SNOW...ETC/
    THUNDER OR FOG.

PAZ002>004-007>009-013>016-020>023-029>032-261100-
WESTERN PENNSYLVANIA

CITY           SKY/WX    TMP DP  RH WIND       PRES   REMARKS
ERIE           CLEAR     56  50  80 S7        30.02S
MEADVILLE      CLEAR     52  50  93 S6        30.05R
FRANKLIN*      CLEAR     46  43  87 SW6       30.07R
NEW CASTLE     FAIR      49  48  97 MISG      30.07R
BEAVER COUNTY  NOT AVBL
BUTLER*        CLEAR     48  45  87 CALM      30.08R
PITTSBURGH INT PTCLDY    55  46  71 NW3       30.07R
PITTSBURGH     CLEAR     56  43  61 SW8       30.08R
INDIANA*       CLEAR     52  50  93 CALM      30.11R
LATROBE        CLEAR     52  50  93 SW7       30.10R
WASHINGTON CO* CLEAR     46  45  93 CALM      30.11R
$$

PAZ004>006-010>012-017>019-024>028-033>037-041-042-045-046-049>053-261100-
CENTRAL PENNSYLVANIA

CITY           SKY/WX    TMP DP  RH WIND       PRES   REMARKS
BRADFORD       CLOUDY    47  46  97 CALM      30.06R
DUBOIS         CLEAR     48  44  86 SW3       30.06R
CLEARFIELD     CLEAR     48  47  96 CALM      30.07R
JOHNSTOWN      CLEAR     53  44  71 S7        30.09R
ALTOONA        CLEAR     54  48  80 S3        30.09R
STATE COLLEGE  CLEAR     52  48  87 SW6       30.06R
WILLIAMSPORT   NOT AVBL
SELINSGROVE    NOT AVBL
FT INDIANTOWN  CLEAR     53  53  99 CALM      30.05R
CAPITAL CITY   NOT AVBL
HARRISBURG     NOT AVBL
YORK           NOT AVBL
$$

PAZ038>040-043-044-047-048-054-055-060>062-067>071-261100-
EASTERN PENNSYLVANIA

CITY           SKY/WX    TMP DP  RH WIND       PRES   REMARKS
SCRANTON       NOT AVBL
MOUNT POCONO   NOT AVBL
ALLENTOWN      NOT AVBL
QUAKERTOWN*    SUNNY     54  52  94 CALM      30.05R
READING        NOT AVBL
LANCASTER      NOT AVBL
COATESVILLE    MOSUNNY   59  50  72 W5        30.07R
POTTSTOWN      NOT AVBL
BLUE BELL      PTCLDY    54  54 100 CALM      30.05S
DOYLESTOWN     NOT AVBL
WILLOW GROVE   NOT AVBL
NORTH PHILA    NOT AVBL
PHILADELPHIA   PTCLDY    64  50  60 CALM      30.04R
$$




USA.gov is the U.S. government's official web portal to all federal, state and local government web resources and services.